Regional Weather Roundup
Issued by NWS Charleston, SC

Current Version | Previous Version | Graphics & Text | Print | Product List | Glossary Off
Versions: 1 2 3 4 5 6 7 8 9 10 11 12 13 14 15 16 17 18 19 20 21 22 23 24 25 26 27 28 29 30 31 32 33 34 35 36 37 38 39 40 41 42 43 44 45 46 47 48 49 50
000 ASUS42 KCHS 311028 RWRCHS REGIONAL WEATHER ROUNDUP NATIONAL WEATHER SERVICE CHARLESTON SC 600 AM EDT TUE MAY 31 2016 NOTE: "FAIR" INDICATES FEW OR NO CLOUDS BELOW 12,000 FEET WITH NO SIGNIFICANT WEATHER AND/OR OBSTRUCTIONS TO VISIBILITY. NOT ALL STATIONS ARE QUALITY CONTROLLED. USE DATA WITH CAUTION... ESPECIALLY DEWPOINT OBSERVATIONS. SCZ027-030-031-034>040-042>050-311100- ...SOUTHEAST SOUTH CAROLINA... CITY SKY/WX TMP DP RH WIND PRES REMARKS N CHARLESTON PTCLDY 71 68 90 NW6 29.87S WATERFRONT PRK N/A 71 71 100 NW5 29.84S MOUNT PLEASANT CLOUDY 72 72 100 CALM 29.88R JOHNS ISLAND CLOUDY 72 72 100 CALM 29.89R PINOPOLIS N/A 73 72 94 N7 29.79F MONCKS CORNER CLOUDY 68 66 94 N3 29.89R SUMMERVILLE CLOUDY 70 70 100 NW3 29.90R FOG BEAUFORT MCAS CLOUDY 71 69 93 NW6 29.89R BEAUFORT ARPT CLOUDY 72 70 94 CALM 29.89R HILTON HEAD IS NOT AVBL WALTERBORO PTSUNNY 70 70 100 NW3 29.91R ALLENDALE FAIR 70 70 100 CALM 29.90R FOG ...SOUTHERN MIDLANDS AND PEE DEE... CITY SKY/WX TMP DP RH WIND PRES REMARKS GEORGETOWN CLOUDY 68 68 100 N3 29.89R KINGSTREE CLOUDY 70 68 94 CALM 29.89R ORANGEBURG MOCLDY 70 69 97 N6 29.90R BARNWELL CLOUDY 72 72 100 N3 29.91R FOG AIKEN FAIR 64 63 94 CALM 29.95S MANNING CLOUDY 68 68 100 N3 29.90R FOG COLUMBIA CLOUDY 72 68 87 N7 29.90S SUMTER CLOUDY 70 68 94 N3 29.88R FLORENCE CLOUDY 72 70 93 NE7 29.90R MYRTLE BEACH CLOUDY 72 63 73 N8 29.89R N MYRTLE BEACH CLOUDY 71 70 96 N7 29.87R FOG $$ GAZ063-065-086>088-099>101-113>116-118-119-134>141-150-311100- ...SOUTHEAST GEORGIA... CITY SKY/WX TMP DP RH WIND PRES REMARKS SAVANNAH ARPT MOCLDY 71 68 90 CALM 29.89R HUNTER AAF MOCLDY 73 73 100 CALM 29.87R FORT STEWART CLEAR 70 66 87 CALM 29.86R STATESBORO CLEAR 68 68 100 CALM 29.91R SYLVANIA SUNNY 70 68 94 CALM 29.91R CLAXTON FAIR 66 66 100 CALM 29.90R ...CSRA...CENTRAL AND FAR SOUTHEAST GEORGIA... CITY SKY/WX TMP DP RH WIND PRES REMARKS THOMSON CLEAR 67 67 100 CALM 29.96R AUGUSTA-BUSH CLEAR 67 66 97 CALM 29.90R AUGUSTA-DANIEL CLEAR 70 66 87 N5 29.92R SWAINSBORO FAIR 68 64 88 CALM 29.92R VIDALIA MOCLDY 70 64 83 CALM 29.89R EASTMAN FAIR N/A N/A N/A CALM 29.92S HAZLEHURST FAIR 71 71 100 CALM 29.89R ALMA PTCLDY 68 67 96 CALM 29.89R WAYCROSS PTCLDY 67 67 100 CALM 29.91R JESUP FAIR 61 61 100 CALM 29.90R BAXLEY FAIR 68 68 100 CALM 29.90R BRUNSWICK MOCLDY 75 70 83 W5 29.91R SAINT SIMONS CLEAR 72 69 90 W8 29.89R $$ SCZ027-028-034-036>038-045-046-048>050-GAZ119-141-311100- ...LAKE AND SUPPLEMENTAL COASTAL OBSERVATIONS... STATION/POSITION TIME TEMP WIND PRES WAVE SWELL AIR SEA DIR/SP/G HT/PER HT/PER/DIR (UTC) (F) (DEG/KT/KT) (MB) (FT/S) (FT/S/D) WINYAH BAY 0900 71 350/ 6 1010.0S LAKE MURRAY 1000 69 30/ 1/ 3 1012.9R ACE BASIN NERRS 0900 70 320/ 1 1012.0R FORT PULASKI 1000 73 76 CALM 1012.4R SAPELO ISLAND 1000 73 240/ 6 1012.0R $$ ANZ835-935-AMZ111-154-330-350-352-354-370-450-454-472-311100- ...C-MAN AND BUOY OBSERVATIONS... STATION/POSITION TIME TEMP WIND PRES WAVE SWELL AIR SEA DIR/SP/G HT/PER HT/PER/DIR (UTC) (F) (DEG/KT/KT) (MB) (FT/S) (FT/S/D) BUOY 41004 0950 74 77 290/ 14/ 16 1010.5R 4/ 8 3/ 8 BUOY 41008 0950 76 77 250/ 14/ 16 1011.3R 3/ 8 2/100/ 8 FOLLY BEACH CMAN 1000 71 290/ 3/ 5 1011.8R CAPERS NEARSHORE 1008 72 76 350/ 10/ 14 1011.2F FRIPP NEARSHORE 1008 74 75 350/ 10/ 14 1011.5R STATION/POSITION TIME TEMP WIND PRES WAVE SWELL AIR SEA DIR/SP/G HT/PER HT/PER/DIR (UTC) (F) (DEG/KT/KT) (MB) (FT/S) (FT/S/D) 5E ST. MARYS GA 1001 78 N/A 3/ 9 FRYING PAN BUOY 1000 78 78 170/ 10/ 12 1010.8R BUOY 41025 0950 78 80 210/ 14/ 16 1012.4R 6/ 8 5/160/ 8 CAPE LOOKOUT NC 1000 75 130/ 5/ 5 1011.8R BUOY 41002 0950 75 76 140/ 12/ 14 1014.5R 5/ 8 3/ 90/ 8 BUOY 41010 0920 79 79 190/ 12/ 14 1013.0F ST AUGUSTINE FL 1000 71 79 240/ 9/ 11 1013.4R $$

USA.gov is the U.S. government's official web portal to all federal, state and local government web resources and services.